379  
ASUS42 KKEY 241210  
RWRKEY  
 
FLORIDA REGIONAL WEATHER ROUNDUP FOR THE FLORIDA KEYS  
NATIONAL WEATHER SERVICE KEY WEST FLORIDA  
700 AM EST MON NOV 24 2014  
   
..SOUTH FLORIDA AND THE KEYS
 
 
 
CITY SKY/WX TMP DP RH WIND PRES REMARKS
 
FORT MYERS CLOUDY 77 75 93 S3 29.96R  
SW REGIONAL AP CLOUDY 74 74 100 SE6 29.97R  
NAPLES CLOUDY 76 76 100 S9 29.97R FOG  
MIAMI MOCLDY 77 75 93 SE3 29.99R  
WEST KENDALL CLOUDY 75 75 100 CALM 29.99R  
HOMESTEAD CLEAR 77 76 95 S2 29.98R  
MARATHON CLEAR 76 76 100 CALM 29.98R  
BOCA CHICA NAS PTCLDY 74 74 100 S3 29.97R  
KEY WEST INTL CLEAR 78 78 100 S3 29.98R  
   
..INTERNATIONAL WEATHER
 
 
 
CITY SKY/WX TMP DP RH WIND PRES REMARKS
 
NASSAU BAHAMAS MOCLDY 79 75 89 S9 30.02R  
CANCUN MEXICO PTCLDY 75 73 94 SE5 29.89R  
COZUMEL MEXICO PTCLDY 68 68 100 SE3 29.89R  
 
ADJACENT COASTAL WATERS...  
 
STATION/POSITION TIME SKY/WX TEMP WIND PRES WAVE
 
AIR SEA DIR/SP/G HT/PER  
(UTC) (F) (DEG/KT/KT) (MB) (FT/S)  
PULASKI SHOAL LI 1100 77 160/ 7/ 8 1013.9R  
SAND KEY 1200 77 170/ 7/ 7 1014.9R  
SOMBRERO KEY 1200 78 180/ 7/ 7 1015.7R  
LONG KEY 1054 78 76 170/ 6/ 7 1015.1R  
MOLASSES REEF 1200 80 78 200/ 7/ 8 1015.3R  
FOWEY ROCKS NOT AVBL  
BUOY 42080 NOT AVBL  
 

 
 
CLICK HERE TO GO TO PREVIOUS BULLETINS.

The Nexlab FL Page Main Text Page